CCA351 ZGSZ-RJAA

Flight info

Callsign CCA351
Flight time N/A
Altitude FL410
Route OVGOT1 OVGOT R200 ANPOG A1 APU G587 PABSO R583 BORDO Z29 GAKIA Y293 YULIA Y89 GUPER Y81 RUTAS RUTASE
Aircraft B744/H-S/N

Departure

Time 2026-04-27 11:28
Airport Shenzhen Bao'an International Airport (ZGSZ)

Arrival

Time N/A
Airport Narita International Airport (RJAA)
Time Latitude Longitude Altitude Speed Heading
2026-04-27 11:28 22.56656 113.85046 2604 ft 232 kts 153°
2026-04-27 11:28 22.55208 113.85838 3155 ft 235 kts 153°
2026-04-27 11:28 22.53748 113.86636 3712 ft 237 kts 153°
2026-04-27 11:29 22.52267 113.87445 4265 ft 240 kts 154°
2026-04-27 11:29 22.50871 113.88442 4736 ft 246 kts 138°
2026-04-27 11:29 22.50014 113.90041 5206 ft 251 kts 109°
2026-04-27 11:29 22.49974 113.91932 5736 ft 257 kts 80°
2026-04-27 11:30 22.50759 113.93671 6286 ft 263 kts 55°
2026-04-27 11:30 22.51950 113.95175 6984 ft 266 kts 52°
2026-04-27 11:30 22.53017 113.96823 7666 ft 267 kts 60°
2026-04-27 11:30 22.53923 113.98582 8336 ft 271 kts 63°
2026-04-27 11:31 22.54903 114.00360 8872 ft 280 kts 51°
2026-04-27 11:31 22.56432 114.01599 9617 ft 277 kts 25°
2026-04-27 11:31 22.58293 114.02211 10065 ft 289 kts 11°
2026-04-27 11:31 22.60351 114.02518 10261 ft 310 kts
2026-04-27 11:32 22.62572 114.02680 10436 ft 333 kts
2026-04-27 11:32 22.64964 114.02849 10599 ft 357 kts
2026-04-27 11:32 22.67446 114.03494 10726 ft 381 kts 22°
2026-04-27 11:32 22.69726 114.05062 10898 ft 401 kts 42°
2026-04-27 11:33 22.71475 114.07442 11433 ft 409 kts 61°
2026-04-27 11:33 22.72475 114.10332 12095 ft 413 kts 78°
2026-04-27 11:33 22.72887 114.13418 12803 ft 417 kts 86°
2026-04-27 11:33 22.73069 114.16563 13542 ft 421 kts 88°
2026-04-27 11:34 22.73201 114.19740 14285 ft 425 kts 88°
2026-04-27 11:34 22.73325 114.22951 14963 ft 432 kts 89°
2026-04-27 11:34 22.73471 114.26217 15633 ft 439 kts 87°
2026-04-27 11:34 22.73724 114.29530 16302 ft 445 kts 85°
2026-04-27 11:35 22.74057 114.32883 16949 ft 452 kts 84°
2026-04-27 11:35 22.74414 114.36286 17575 ft 458 kts 84°
2026-04-27 11:35 22.74737 114.39430 18124 ft 464 kts 84°
2026-04-27 11:35 22.75092 114.42911 18728 ft 469 kts 84°
2026-04-27 11:36 22.75449 114.46426 19320 ft 474 kts 84°
2026-04-27 11:36 22.75810 114.49981 19871 ft 480 kts 84°
2026-04-27 11:36 22.76177 114.53598 20420 ft 485 kts 84°
2026-04-27 11:36 22.76557 114.57242 20938 ft 490 kts 83°
2026-04-27 11:37 22.76936 114.60929 21470 ft 495 kts 84°
2026-04-27 11:37 22.77312 114.64634 21993 ft 500 kts 84°
2026-04-27 11:37 22.77692 114.68395 22504 ft 504 kts 84°
2026-04-27 11:37 22.78076 114.72182 22997 ft 509 kts 84°
2026-04-27 11:38 22.78463 114.76012 23480 ft 514 kts 84°
2026-04-27 11:38 22.78871 114.79861 23953 ft 518 kts 84°
2026-04-27 11:38 22.79285 114.83754 24418 ft 523 kts 84°
2026-04-27 11:38 22.79700 114.87677 24890 ft 527 kts 84°
2026-04-27 11:39 22.80114 114.91616 25429 ft 529 kts 84°
2026-04-27 11:39 22.80529 114.95575 25940 ft 531 kts 84°
2026-04-27 11:39 22.80944 114.99550 26416 ft 533 kts 84°
2026-04-27 11:39 22.81360 115.03540 26872 ft 535 kts 84°
2026-04-27 11:40 22.81776 115.07546 27303 ft 537 kts 84°
2026-04-27 11:40 22.82193 115.11566 27717 ft 539 kts 84°
2026-04-27 11:40 22.82628 115.15596 28098 ft 541 kts 84°
2026-04-27 11:40 22.83060 115.19636 28604 ft 539 kts 84°
2026-04-27 11:41 22.83482 115.23636 29276 ft 534 kts 84°
2026-04-27 11:41 22.83897 115.27610 29884 ft 530 kts 84°
2026-04-27 11:41 22.84308 115.31565 30424 ft 528 kts 84°
2026-04-27 11:41 22.84716 115.35504 30976 ft 525 kts 84°
2026-04-27 11:42 22.85119 115.39417 31534 ft 522 kts 84°
2026-04-27 11:42 22.85519 115.43315 32022 ft 521 kts 84°
2026-04-27 11:42 22.85786 115.45912 32293 ft 521 kts 85°
2026-04-27 11:42 22.86318 115.51117 32754 ft 523 kts 85°
2026-04-27 11:43 22.86723 115.55024 33142 ft 523 kts 84°
2026-04-27 11:43 22.87134 115.58933 33482 ft 523 kts 84°
2026-04-27 11:43 22.87532 115.62845 33843 ft 523 kts 84°
2026-04-27 11:43 22.87925 115.66755 34188 ft 523 kts 85°
2026-04-27 11:44 22.88317 115.70668 34527 ft 523 kts 85°
2026-04-27 11:44 22.88708 115.74589 34857 ft 523 kts 85°
2026-04-27 11:44 22.89096 115.78489 35162 ft 523 kts 84°
2026-04-27 11:44 22.89486 115.82411 35458 ft 523 kts 84°
2026-04-27 11:45 22.89878 115.86334 35613 ft 527 kts 85°
2026-04-27 11:45 22.90139 115.88965 35741 ft 528 kts 84°
2026-04-27 11:45 22.90700 115.94254 35961 ft 532 kts 84°
2026-04-27 11:45 22.91116 115.98233 36245 ft 531 kts 84°
2026-04-27 11:46 22.91529 116.02205 36509 ft 531 kts 84°
2026-04-27 11:46 22.91952 116.06178 36724 ft 532 kts 84°
2026-04-27 11:46 22.92368 116.10157 36953 ft 532 kts 84°
2026-04-27 11:46 22.92777 116.14136 37172 ft 532 kts 84°
2026-04-27 11:47 22.93183 116.18122 37377 ft 532 kts 84°
2026-04-27 11:47 22.93587 116.22107 37579 ft 532 kts 84°
2026-04-27 11:47 22.93991 116.26092 37763 ft 533 kts 84°
2026-04-27 11:47 22.94395 116.30088 37886 ft 534 kts 84°
2026-04-27 11:48 22.94800 116.34077 38070 ft 534 kts 84°
2026-04-27 11:48 22.95160 116.38075 38239 ft 534 kts 86°
2026-04-27 11:48 22.95377 116.42087 38390 ft 533 kts 88°
2026-04-27 11:48 22.95524 116.46094 38539 ft 533 kts 88°
2026-04-27 11:49 22.95676 116.50112 38669 ft 534 kts 88°
2026-04-27 11:49 22.95840 116.54127 38800 ft 534 kts 88°
2026-04-27 11:49 22.96011 116.58141 38927 ft 534 kts 88°
2026-04-27 11:49 22.96185 116.62159 39048 ft 534 kts 88°
2026-04-27 11:50 22.96360 116.66169 39162 ft 534 kts 88°
2026-04-27 11:50 22.96536 116.70187 39270 ft 534 kts 88°
2026-04-27 11:50 22.96714 116.74197 39371 ft 534 kts 88°
2026-04-27 11:50 22.96908 116.78205 39468 ft 534 kts 88°
2026-04-27 11:51 22.97276 116.86236 39644 ft 534 kts 88°
2026-04-27 11:51 22.97629 116.94258 39800 ft 534 kts 88°
2026-04-27 11:52 22.97803 116.98271 39872 ft 534 kts 88°
2026-04-27 11:52 22.98161 117.06303 40004 ft 534 kts 88°
2026-04-27 11:53 22.98507 117.14328 40124 ft 533 kts 88°
2026-04-27 11:53 22.98835 117.22351 40234 ft 533 kts 88°
2026-04-27 11:54 22.99159 117.30374 40335 ft 533 kts 88°
2026-04-27 11:54 22.99484 117.38398 40455 ft 532 kts 88°
2026-04-27 11:55 22.99356 117.46360 40662 ft 527 kts 105°
2026-04-27 11:55 22.98167 117.50064 40861 ft 518 kts 120°
2026-04-27 11:55 22.96289 117.53361 40905 ft 514 kts 129°
2026-04-27 11:56 22.91875 117.59454 40944 ft 514 kts 136°
2026-04-27 11:56 22.86983 117.65059 40935 ft 513 kts 139°
2026-04-27 11:57 22.82062 117.70636 40935 ft 513 kts 137°
2026-04-27 11:57 22.77189 117.76253 40935 ft 513 kts 137°
2026-04-27 11:58 22.72303 117.81853 40935 ft 513 kts 137°
2026-04-27 11:58 22.67448 117.87497 40916 ft 515 kts 131°
2026-04-27 11:58 22.65593 117.90814 40933 ft 521 kts 116°
2026-04-27 11:59 22.64547 117.94564 40946 ft 526 kts 101°
2026-04-27 11:59 22.64383 117.98513 40944 ft 529 kts 85°
2026-04-27 11:59 22.65116 118.02404 40941 ft 530 kts 70°
2026-04-27 12:00 22.68422 118.09468 40933 ft 526 kts 53°
2026-04-27 12:00 22.72567 118.15941 40958 ft 524 kts 51°
2026-04-27 12:01 22.76595 118.22491 40985 ft 523 kts 53°
2026-04-27 12:01 22.80572 118.29083 40933 ft 524 kts 53°
2026-04-27 12:02 22.84518 118.35681 41010 ft 523 kts 53°
2026-04-27 12:02 22.88454 118.42300 40926 ft 524 kts 53°
2026-04-27 12:03 22.92385 118.48921 40985 ft 522 kts 53°
2026-04-27 12:03 22.96313 118.55544 40947 ft 524 kts 53°
2026-04-27 12:04 23.00224 118.62175 40993 ft 522 kts 53°
2026-04-27 12:04 23.04133 118.68818 40940 ft 524 kts 53°
2026-04-27 12:05 23.08038 118.75470 40994 ft 523 kts 53°
2026-04-27 12:05 23.11779 118.81850 40973 ft 523 kts 53°
2026-04-27 12:06 23.15686 118.88489 41002 ft 523 kts 53°
2026-04-27 12:06 23.19599 118.95130 40982 ft 523 kts 53°
2026-04-27 12:07 23.23501 119.01782 41003 ft 523 kts 53°
2026-04-27 12:07 23.27398 119.08442 40991 ft 523 kts 53°
2026-04-27 12:08 23.31286 119.15097 40993 ft 522 kts 53°
2026-04-27 12:08 23.35173 119.21758 40994 ft 522 kts 53°
2026-04-27 12:09 23.39055 119.28422 40995 ft 523 kts 53°
2026-04-27 12:09 23.42948 119.35103 40994 ft 523 kts 53°
2026-04-27 12:10 23.46844 119.41780 40990 ft 524 kts 53°
2026-04-27 12:10 23.50728 119.48487 40997 ft 524 kts 53°
2026-04-27 12:11 23.54609 119.55198 40995 ft 525 kts 53°
2026-04-27 12:11 23.58503 119.61901 40986 ft 524 kts 51°
2026-04-27 12:12 23.63109 119.67940 41000 ft 517 kts 41°
2026-04-27 12:12 23.68160 119.73471 40992 ft 515 kts 39°
2026-04-27 12:13 23.73180 119.79021 40988 ft 514 kts 40°
2026-04-27 12:13 23.78165 119.84597 40996 ft 514 kts 40°
2026-04-27 12:14 23.83163 119.90166 40994 ft 515 kts 40°
2026-04-27 12:14 23.88148 119.95772 40999 ft 516 kts 41°
2026-04-27 12:15 23.93124 120.01380 41000 ft 515 kts 41°
2026-04-27 12:15 23.98091 120.06982 41006 ft 513 kts 41°
2026-04-27 12:16 24.03042 120.12556 41015 ft 511 kts 41°
2026-04-27 12:16 24.07976 120.18121 41016 ft 510 kts 42°
2026-04-27 12:17 24.12904 120.23701 41014 ft 511 kts 42°
2026-04-27 12:17 24.17816 120.29267 41018 ft 509 kts 42°
2026-04-27 12:18 24.22022 120.34048 41019 ft 510 kts 43°
2026-04-27 12:18 24.26934 120.39639 41019 ft 511 kts 43°
2026-04-27 12:19 24.31869 120.45245 41018 ft 512 kts 43°
2026-04-27 12:19 24.36809 120.50835 41020 ft 512 kts 43°
2026-04-27 12:20 24.41747 120.56454 41021 ft 512 kts 43°
2026-04-27 12:20 24.46666 120.62070 41012 ft 512 kts 43°
2026-04-27 12:21 24.51595 120.67705 41008 ft 513 kts 43°
2026-04-27 12:21 24.56522 120.73352 41000 ft 514 kts 44°
2026-04-27 12:22 24.61195 120.79294 40999 ft 516 kts 47°
2026-04-27 12:22 24.65837 120.85295 40973 ft 517 kts 46°
2026-04-27 12:23 24.70510 120.91299 40970 ft 518 kts 46°
2026-04-27 12:23 24.75184 120.97313 40966 ft 519 kts 46°
2026-04-27 12:24 24.79868 121.03345 40965 ft 519 kts 46°
2026-04-27 12:24 24.83543 121.08079 40965 ft 519 kts 46°
2026-04-27 12:25 24.88230 121.14116 40964 ft 519 kts 46°
2026-04-27 12:25 24.92915 121.20164 40965 ft 520 kts 46°
2026-04-27 12:26 24.97607 121.26215 40964 ft 520 kts 45°
2026-04-27 12:26 25.02308 121.32256 40964 ft 519 kts 46°
2026-04-27 12:27 25.06979 121.38308 40965 ft 520 kts 46°
2026-04-27 12:27 25.11656 121.44380 40966 ft 521 kts 46°
2026-04-27 12:28 25.16297 121.50511 40945 ft 522 kts 52°
2026-04-27 12:28 25.19712 121.57582 41012 ft 525 kts 64°
2026-04-27 12:29 25.22374 121.65118 40916 ft 529 kts 68°
2026-04-27 12:29 25.24973 121.72695 40993 ft 528 kts 67°
2026-04-27 12:30 25.27628 121.80257 40983 ft 529 kts 67°
2026-04-27 12:30 25.30293 121.87813 40922 ft 529 kts 66°
2026-04-27 12:31 25.33000 121.95349 41022 ft 528 kts 66°
2026-04-27 12:31 25.35657 122.02897 40952 ft 529 kts 67°
2026-04-27 12:32 25.38307 122.10460 40942 ft 528 kts 67°
2026-04-27 12:32 25.40956 122.18023 41020 ft 528 kts 67°
2026-04-27 12:33 25.43536 122.25622 40940 ft 530 kts 69°
2026-04-27 12:33 25.45987 122.33274 40982 ft 528 kts 69°
2026-04-27 12:34 25.48449 122.40918 40979 ft 528 kts 69°
2026-04-27 12:34 25.50911 122.48560 40933 ft 528 kts 69°
2026-04-27 12:35 25.53513 122.56128 41022 ft 527 kts 67°
2026-04-27 12:35 25.56059 122.63496 40923 ft 528 kts 68°
2026-04-27 12:36 25.58641 122.71071 40990 ft 525 kts 68°
2026-04-27 12:36 25.61215 122.78644 40996 ft 527 kts 68°
2026-04-27 12:37 25.63789 122.86219 40939 ft 526 kts 68°
2026-04-27 12:37 25.66339 122.93790 41031 ft 525 kts 68°
2026-04-27 12:38 25.68882 123.01378 40957 ft 527 kts 68°
2026-04-27 12:38 25.71432 123.08966 40972 ft 525 kts 68°
2026-04-27 12:39 25.73971 123.16548 41004 ft 526 kts 68°
2026-04-27 12:39 25.76511 123.24148 40927 ft 527 kts 68°
2026-04-27 12:40 25.79080 123.31718 41023 ft 525 kts 68°
2026-04-27 12:40 25.81614 123.39304 40978 ft 524 kts 69°
2026-04-27 12:41 25.84123 123.46860 40969 ft 522 kts 69°
2026-04-27 12:41 25.86628 123.54414 41047 ft 522 kts 69°
2026-04-27 12:42 25.89134 123.61980 40950 ft 524 kts 69°
2026-04-27 12:42 25.91651 123.69534 41035 ft 521 kts 69°
2026-04-27 12:43 25.94157 123.77097 40963 ft 524 kts 69°
2026-04-27 12:43 25.96643 123.84666 40999 ft 522 kts 69°
2026-04-27 12:44 25.99126 123.92237 41015 ft 523 kts 69°
2026-04-27 12:44 26.01714 123.99763 40918 ft 523 kts 63°
2026-04-27 12:44 26.03372 124.03336 41032 ft 521 kts 59°
2026-04-27 12:45 26.05197 124.06807 41013 ft 519 kts 57°
2026-04-27 12:45 26.09002 124.13629 41034 ft 521 kts 57°
2026-04-27 12:46 26.12774 124.20502 40969 ft 521 kts 57°
2026-04-27 12:46 26.16516 124.27395 41036 ft 521 kts 57°
2026-04-27 12:47 26.20250 124.34287 40942 ft 522 kts 57°
2026-04-27 12:47 26.24004 124.41172 41022 ft 520 kts 57°
2026-04-27 12:48 26.27738 124.48070 41021 ft 521 kts 57°
2026-04-27 12:48 26.31468 124.54984 40974 ft 521 kts 58°
2026-04-27 12:49 26.35185 124.61888 41050 ft 521 kts 58°
2026-04-27 12:49 26.38906 124.68810 40955 ft 522 kts 58°
2026-04-27 12:50 26.42621 124.75734 41014 ft 520 kts 58°
2026-04-27 12:50 26.46330 124.82657 41004 ft 521 kts 58°
2026-04-27 12:51 26.50039 124.89591 40957 ft 521 kts 58°
2026-04-27 12:51 26.53740 124.96521 41047 ft 521 kts 58°
2026-04-27 12:52 26.57445 125.03468 40947 ft 522 kts 58°
2026-04-27 12:52 26.61141 125.10411 41015 ft 520 kts 58°
2026-04-27 12:53 26.66682 125.20837 41030 ft 520 kts 58°
2026-04-27 12:53 26.70368 125.27787 40988 ft 522 kts 58°
2026-04-27 12:54 26.74057 125.34755 40964 ft 521 kts 58°
2026-04-27 12:54 26.77741 125.41722 41047 ft 521 kts 58°
2026-04-27 12:55 26.81420 125.48692 40960 ft 522 kts 59°
2026-04-27 12:55 26.83253 125.52169 41081 ft 520 kts 59°
2026-04-27 12:55 26.85089 125.55655 41067 ft 519 kts 59°
2026-04-27 12:56 26.88765 125.62602 41048 ft 521 kts 59°
2026-04-27 12:56 26.92431 125.69578 41028 ft 520 kts 59°
2026-04-27 12:57 26.96083 125.76558 41096 ft 520 kts 59°
2026-04-27 12:57 26.99734 125.83548 41005 ft 521 kts 59°
2026-04-27 12:58 27.03380 125.90531 41095 ft 519 kts 60°
2026-04-27 12:58 27.07044 125.97516 41040 ft 521 kts 59°
2026-04-27 12:59 27.10696 126.04504 41035 ft 520 kts 59°
2026-04-27 12:59 27.14341 126.11494 41101 ft 520 kts 59°
2026-04-27 13:00 27.17987 126.18498 41009 ft 521 kts 60°
2026-04-27 13:00 27.21639 126.25491 41085 ft 519 kts 59°
2026-04-27 13:01 27.24694 126.31314 41103 ft 520 kts 59°
2026-04-27 13:01 27.28952 126.39485 41053 ft 520 kts 60°
2026-04-27 13:02 27.32592 126.46494 41046 ft 521 kts 60°
2026-04-27 13:02 27.36229 126.53513 41028 ft 520 kts 60°
2026-04-27 13:03 27.39865 126.60540 41107 ft 520 kts 60°
2026-04-27 13:03 27.43490 126.67559 41011 ft 521 kts 60°
2026-04-27 13:04 27.47117 126.74596 41070 ft 519 kts 60°
2026-04-27 13:04 27.50736 126.81626 41070 ft 521 kts 60°
2026-04-27 13:05 27.54354 126.88666 41008 ft 521 kts 60°
2026-04-27 13:05 27.57861 126.95500 41097 ft 524 kts 59°
2026-04-27 13:06 27.61512 127.02628 41004 ft 526 kts 59°
2026-04-27 13:06 27.65159 127.09761 41094 ft 525 kts 59°
2026-04-27 13:07 27.68818 127.16878 41027 ft 527 kts 59°
2026-04-27 13:07 27.72457 127.24028 41051 ft 526 kts 60°
2026-04-27 13:08 27.76088 127.31185 41088 ft 527 kts 59°
2026-04-27 13:08 27.79726 127.38361 40995 ft 528 kts 59°
2026-04-27 13:09 27.83330 127.45570 41082 ft 527 kts 61°
2026-04-27 13:09 27.86798 127.52857 41037 ft 528 kts 62°
2026-04-27 13:10 27.90249 127.60111 41015 ft 524 kts 62°
2026-04-27 13:10 27.93718 127.67405 41020 ft 532 kts 58°
2026-04-27 13:11 27.97233 127.74803 40965 ft 538 kts 58°
2026-04-27 13:11 28.00809 127.82251 41048 ft 541 kts 58°
2026-04-27 13:12 28.04391 127.89737 40956 ft 543 kts 58°
2026-04-27 13:12 28.07958 127.97233 41015 ft 541 kts 58°
2026-04-27 13:13 28.11513 128.04726 40997 ft 542 kts 58°
2026-04-27 13:13 28.15068 128.12234 40993 ft 541 kts 58°
2026-04-27 13:14 28.18611 128.19732 41029 ft 541 kts 58°
2026-04-27 13:14 28.22150 128.27238 40947 ft 541 kts 58°
2026-04-27 13:15 28.25674 128.34724 41039 ft 538 kts 58°
2026-04-27 13:15 28.29200 128.42227 40974 ft 541 kts 59°
2026-04-27 13:16 28.32722 128.49739 40993 ft 539 kts 59°
2026-04-27 13:16 28.36237 128.57246 41010 ft 540 kts 59°
2026-04-27 13:17 28.39750 128.64764 40955 ft 540 kts 59°
2026-04-27 13:17 28.43254 128.72276 41048 ft 539 kts 59°
2026-04-27 13:18 28.46760 128.79805 40954 ft 540 kts 59°
2026-04-27 13:18 28.50260 128.87337 41053 ft 539 kts 59°
2026-04-27 13:19 28.53757 128.94876 40967 ft 541 kts 59°
2026-04-27 13:19 28.57251 129.02422 41044 ft 540 kts 59°
2026-04-27 13:20 28.60745 129.09982 41004 ft 541 kts 59°
2026-04-27 13:20 28.64233 129.17545 40985 ft 541 kts 59°
2026-04-27 13:21 28.67720 129.25118 41044 ft 541 kts 59°
2026-04-27 13:21 28.71200 129.32692 40968 ft 542 kts 59°
2026-04-27 13:22 28.74678 129.40273 41059 ft 540 kts 59°
2026-04-27 13:22 28.78148 129.47853 40986 ft 542 kts 59°
2026-04-27 13:23 28.81622 129.55454 41010 ft 540 kts 59°
2026-04-27 13:23 28.85085 129.63046 41035 ft 541 kts 60°
2026-04-27 13:24 28.88549 129.70657 40990 ft 541 kts 60°
2026-04-27 13:24 28.92006 129.78264 41021 ft 542 kts 60°
2026-04-27 13:25 28.95462 129.85885 41001 ft 541 kts 60°
2026-04-27 13:25 28.98908 129.93499 41056 ft 541 kts 60°
2026-04-27 13:26 29.02355 130.01128 40976 ft 542 kts 60°
2026-04-27 13:26 29.05795 130.08757 41065 ft 541 kts 60°
2026-04-27 13:27 29.09237 130.16404 41000 ft 543 kts 60°
2026-04-27 13:27 29.12672 130.24052 41045 ft 541 kts 60°
2026-04-27 13:28 29.16106 130.31713 40998 ft 542 kts 60°
2026-04-27 13:28 29.19533 130.39370 41012 ft 542 kts 60°
2026-04-27 13:29 29.22954 130.47032 41035 ft 541 kts 60°
2026-04-27 13:29 29.26366 130.54685 40987 ft 542 kts 60°
2026-04-27 13:30 29.29782 130.62369 41016 ft 542 kts 60°
2026-04-27 13:30 29.33206 130.70079 41061 ft 546 kts 60°
2026-04-27 13:31 29.36655 130.77861 41013 ft 550 kts 59°
2026-04-27 13:31 29.40115 130.85685 41015 ft 551 kts 60°
2026-04-27 13:32 29.43567 130.93510 41035 ft 551 kts 60°
2026-04-27 13:32 29.47013 131.01337 41027 ft 552 kts 60°
2026-04-27 13:33 29.50466 131.09189 41026 ft 551 kts 60°
2026-04-27 13:33 29.53910 131.17040 41027 ft 552 kts 60°
2026-04-27 13:34 29.57348 131.24895 41028 ft 552 kts 60°
2026-04-27 13:34 29.60791 131.32776 41025 ft 553 kts 60°
2026-04-27 13:35 29.64232 131.40665 41024 ft 553 kts 59°
2026-04-27 13:35 29.67510 131.48196 41026 ft 553 kts 59°
2026-04-27 13:36 29.70959 131.56079 41026 ft 553 kts 59°
2026-04-27 13:36 29.74377 131.63986 41025 ft 553 kts 60°
2026-04-27 13:37 29.77786 131.71898 41022 ft 553 kts 60°
2026-04-27 13:37 29.81214 131.79801 41021 ft 552 kts 58°
2026-04-27 13:38 29.85275 131.87234 41021 ft 549 kts 50°
2026-04-27 13:38 29.89683 131.94372 41023 ft 546 kts 50°
2026-04-27 13:39 29.94036 132.01519 41023 ft 546 kts 50°
2026-04-27 13:39 29.98360 132.08702 41024 ft 547 kts 50°
2026-04-27 13:40 30.02689 132.15895 41021 ft 547 kts 50°
2026-04-27 13:40 30.07033 132.23081 41023 ft 547 kts 50°
2026-04-27 13:41 30.11357 132.30286 41023 ft 547 kts 50°
2026-04-27 13:41 30.15676 132.37504 41023 ft 547 kts 50°
2026-04-27 13:42 30.19985 132.44723 41025 ft 547 kts 51°
2026-04-27 13:42 30.24294 132.51955 41024 ft 547 kts 51°
2026-04-27 13:43 30.28594 132.59187 41023 ft 547 kts 51°
2026-04-27 13:43 30.32893 132.66430 41023 ft 547 kts 51°
2026-04-27 13:44 30.37187 132.73682 41023 ft 547 kts 51°
2026-04-27 13:44 30.41483 132.80942 41023 ft 547 kts 51°
2026-04-27 13:45 30.45767 132.88202 41026 ft 547 kts 51°
2026-04-27 13:45 30.50051 132.95470 41025 ft 547 kts 51°
2026-04-27 13:46 30.54330 133.02746 41024 ft 547 kts 51°
2026-04-27 13:46 30.58604 133.10028 41023 ft 547 kts 51°
2026-04-27 13:47 30.62875 133.17314 41023 ft 547 kts 51°
2026-04-27 13:47 30.67146 133.24618 41025 ft 547 kts 51°
2026-04-27 13:48 30.71407 133.31914 41025 ft 547 kts 51°
2026-04-27 13:48 30.75680 133.39204 41025 ft 547 kts 51°
2026-04-27 13:49 30.79937 133.46521 41026 ft 547 kts 51°
2026-04-27 13:49 30.84179 133.53849 41024 ft 547 kts 51°
2026-04-27 13:50 30.88418 133.61180 41026 ft 547 kts 51°
2026-04-27 13:50 30.92659 133.68521 41025 ft 547 kts 51°
2026-04-27 13:51 30.96893 133.75860 41023 ft 547 kts 51°
2026-04-27 13:51 31.01126 133.83225 41024 ft 548 kts 51°
2026-04-27 13:52 31.05348 133.90588 41024 ft 547 kts 51°
2026-04-27 13:52 31.09569 133.97959 41024 ft 547 kts 52°
2026-04-27 13:53 31.15934 134.08991 41023 ft 547 kts 51°
2026-04-27 13:54 31.20157 134.16362 41027 ft 547 kts 51°
2026-04-27 13:54 31.24377 134.23749 41025 ft 547 kts 52°
2026-04-27 13:55 31.28588 134.31140 41023 ft 548 kts 52°
2026-04-27 13:55 31.32798 134.38545 41022 ft 548 kts 52°
2026-04-27 13:56 31.37000 134.45951 41022 ft 548 kts 52°
2026-04-27 13:56 31.41202 134.53369 41024 ft 548 kts 52°
2026-04-27 13:57 31.45397 134.60788 41025 ft 548 kts 52°
2026-04-27 13:57 31.49588 134.68219 41023 ft 548 kts 52°
2026-04-27 13:58 31.53771 134.75648 41024 ft 548 kts 52°
2026-04-27 13:58 31.57975 134.83073 41023 ft 548 kts 52°
2026-04-27 13:59 31.62150 134.90531 41024 ft 548 kts 52°
2026-04-27 13:59 31.66315 134.97992 41023 ft 548 kts 52°
2026-04-27 14:00 31.70484 135.05463 41026 ft 548 kts 52°
2026-04-27 14:00 31.74638 135.12939 41024 ft 548 kts 52°
2026-04-27 14:01 31.78787 135.20439 41024 ft 548 kts 52°
2026-04-27 14:01 31.82923 135.27936 41019 ft 548 kts 52°
2026-04-27 14:02 31.87061 135.35452 41023 ft 548 kts 52°
2026-04-27 14:02 31.91193 135.42959 41022 ft 548 kts 52°
2026-04-27 14:03 31.95356 135.50455 41021 ft 548 kts 52°
2026-04-27 14:03 31.99491 135.57970 41023 ft 548 kts 52°
2026-04-27 14:04 32.03624 135.65504 41024 ft 548 kts 52°
2026-04-27 14:04 32.07747 135.73044 41021 ft 548 kts 52°
2026-04-27 14:05 32.11885 135.80578 41027 ft 548 kts 52°
2026-04-27 14:05 32.15826 135.87802 41025 ft 548 kts 53°
2026-04-27 14:06 32.19929 135.95370 41023 ft 548 kts 53°
2026-04-27 14:06 32.24027 136.02943 41023 ft 548 kts 53°
2026-04-27 14:07 32.28127 136.10526 41023 ft 548 kts 53°
2026-04-27 14:07 32.32227 136.18101 41025 ft 548 kts 53°
2026-04-27 14:08 32.36312 136.25688 41024 ft 549 kts 53°
2026-04-27 14:08 32.40403 136.33301 41023 ft 548 kts 53°
2026-04-27 14:09 32.44475 136.40903 41024 ft 549 kts 53°
2026-04-27 14:09 32.48581 136.48504 41026 ft 549 kts 53°
2026-04-27 14:10 32.52683 136.56106 41025 ft 548 kts 53°
2026-04-27 14:10 32.56766 136.63723 41023 ft 549 kts 53°
2026-04-27 14:11 32.60840 136.71347 41025 ft 549 kts 53°
2026-04-27 14:11 32.64908 136.78980 41026 ft 549 kts 53°
2026-04-27 14:12 32.68972 136.86623 41025 ft 549 kts 53°
2026-04-27 14:12 32.73035 136.94276 41024 ft 549 kts 53°
2026-04-27 14:13 32.77091 137.01936 41023 ft 549 kts 53°
2026-04-27 14:13 32.81143 137.09603 41024 ft 549 kts 53°
2026-04-27 14:14 32.85187 137.17270 41024 ft 549 kts 53°
2026-04-27 14:14 32.89231 137.24955 41025 ft 549 kts 53°
2026-04-27 14:15 32.93274 137.32650 41020 ft 549 kts 53°
2026-04-27 14:15 32.97303 137.40340 41024 ft 549 kts 53°
2026-04-27 14:16 33.01335 137.48049 41026 ft 549 kts 53°
2026-04-27 14:16 33.05359 137.55758 41023 ft 549 kts 53°
2026-04-27 14:17 33.09381 137.63479 41026 ft 549 kts 54°
2026-04-27 14:17 33.13395 137.71200 41025 ft 549 kts 54°
2026-04-27 14:18 33.17406 137.78936 41026 ft 549 kts 54°
2026-04-27 14:18 33.21416 137.86679 41024 ft 549 kts 54°
2026-04-27 14:19 33.25420 137.94431 41025 ft 549 kts 54°
2026-04-27 14:19 33.29435 138.02176 41019 ft 549 kts 53°
2026-04-27 14:19 33.31442 138.06060 40861 ft 556 kts 54°
2026-04-27 14:20 33.33467 138.10006 40837 ft 561 kts 54°
2026-04-27 14:20 33.37561 138.18011 40810 ft 568 kts 54°
2026-04-27 14:21 33.41689 138.26095 40774 ft 571 kts 54°
2026-04-27 14:21 33.45821 138.34194 40781 ft 572 kts 54°
2026-04-27 14:22 33.49953 138.42298 40807 ft 570 kts 54°
2026-04-27 14:22 33.54074 138.50410 40778 ft 571 kts 54°
2026-04-27 14:23 33.58193 138.58523 40801 ft 570 kts 54°
2026-04-27 14:23 33.62347 138.66607 40768 ft 572 kts 54°
2026-04-27 14:24 33.66457 138.74749 40796 ft 570 kts 54°
2026-04-27 14:24 33.68491 138.78790 40606 ft 564 kts 54°
2026-04-27 14:24 33.70501 138.82786 40234 ft 558 kts 54°
2026-04-27 14:24 33.72491 138.86742 39857 ft 552 kts 54°
2026-04-27 14:25 33.74469 138.90675 39474 ft 547 kts 54°
2026-04-27 14:25 33.76417 138.94556 39091 ft 542 kts 53°
2026-04-27 14:25 33.78351 138.98412 38716 ft 538 kts 53°
2026-04-27 14:25 33.80268 139.02242 38344 ft 535 kts 53°
2026-04-27 14:26 33.82175 139.06059 37969 ft 532 kts 53°
2026-04-27 14:26 33.84066 139.09847 37595 ft 528 kts 53°
2026-04-27 14:26 33.85947 139.13619 37219 ft 525 kts 52°
2026-04-27 14:26 33.87812 139.17363 36844 ft 521 kts 52°
2026-04-27 14:27 33.89665 139.21085 36468 ft 517 kts 52°
2026-04-27 14:27 33.91518 139.24766 36092 ft 513 kts 52°
2026-04-27 14:27 33.93371 139.28407 35717 ft 509 kts 52°
2026-04-27 14:27 33.95186 139.32036 35342 ft 506 kts 52°
2026-04-27 14:28 33.96979 139.35646 34967 ft 502 kts 52°
2026-04-27 14:28 33.98762 139.39246 34591 ft 499 kts 52°
2026-04-27 14:28 34.00529 139.42821 34216 ft 496 kts 52°
2026-04-27 14:28 34.02284 139.46373 33842 ft 492 kts 52°
2026-04-27 14:29 34.04020 139.49890 33467 ft 488 kts 52°
2026-04-27 14:29 34.05747 139.53384 33091 ft 484 kts 52°
2026-04-27 14:29 34.07528 139.56776 32716 ft 477 kts 47°
2026-04-27 14:29 34.09495 139.59968 32342 ft 471 kts 43°
2026-04-27 14:30 34.11540 139.63011 31966 ft 465 kts 41°
2026-04-27 14:30 34.13590 139.65995 31591 ft 461 kts 41°
2026-04-27 14:30 34.15617 139.68965 31215 ft 457 kts 41°
2026-04-27 14:30 34.17612 139.71918 30840 ft 453 kts 41°
2026-04-27 14:31 34.19571 139.74860 30465 ft 449 kts 41°
2026-04-27 14:31 34.21511 139.77792 30090 ft 446 kts 42°
2026-04-27 14:31 34.23441 139.80714 29714 ft 444 kts 42°
2026-04-27 14:31 34.25356 139.83620 29340 ft 442 kts 42°
2026-04-27 14:32 34.27261 139.86511 28965 ft 440 kts 42°
2026-04-27 14:32 34.29157 139.89393 28590 ft 438 kts 41°
2026-04-27 14:32 34.31045 139.92262 28215 ft 435 kts 41°
2026-04-27 14:32 34.32920 139.95108 27840 ft 432 kts 41°
2026-04-27 14:33 34.34777 139.97934 27465 ft 429 kts 41°
2026-04-27 14:33 34.36633 140.00742 27090 ft 426 kts 41°
2026-04-27 14:33 34.38472 140.03536 26713 ft 424 kts 41°
2026-04-27 14:33 34.40295 140.06318 26338 ft 421 kts 41°
2026-04-27 14:34 34.42106 140.09082 25963 ft 418 kts 41°
2026-04-27 14:34 34.43902 140.11822 25588 ft 415 kts 41°
2026-04-27 14:34 34.45681 140.14558 25214 ft 414 kts 43°
2026-04-27 14:34 34.47325 140.17404 24846 ft 414 kts 47°
2026-04-27 14:35 34.48860 140.20341 24469 ft 412 kts 49°
2026-04-27 14:35 34.50341 140.23305 24095 ft 412 kts 50°
2026-04-27 14:35 34.51697 140.25999 23754 ft 411 kts 49°
2026-04-27 14:35 34.53187 140.28931 23382 ft 407 kts 49°
2026-04-27 14:36 34.54666 140.31830 23004 ft 403 kts 50°
2026-04-27 14:36 34.56135 140.34687 22634 ft 398 kts 49°
2026-04-27 14:36 34.57611 140.37502 22253 ft 394 kts 50°
2026-04-27 14:36 34.59066 140.40298 21879 ft 390 kts 50°
2026-04-27 14:37 34.60492 140.43066 21504 ft 386 kts 50°
2026-04-27 14:37 34.61904 140.45816 21127 ft 382 kts 51°
2026-04-27 14:37 34.63295 140.48532 20759 ft 378 kts 52°
2026-04-27 14:37 34.64673 140.51227 20384 ft 375 kts 52°
2026-04-27 14:38 34.66036 140.53894 20010 ft 370 kts 52°
2026-04-27 14:38 34.67386 140.56535 19634 ft 366 kts 53°
2026-04-27 14:38 34.68710 140.59132 19261 ft 362 kts 53°
2026-04-27 14:38 34.70035 140.61730 18886 ft 359 kts 53°
2026-04-27 14:39 34.71382 140.64249 18512 ft 352 kts 46°
2026-04-27 14:39 34.73170 140.66186 18150 ft 342 kts 25°
2026-04-27 14:39 34.75328 140.67263 17777 ft 332 kts
2026-04-27 14:39 34.77546 140.67916 17382 ft 326 kts
2026-04-27 14:40 34.79746 140.68406 17009 ft 320 kts
2026-04-27 14:40 34.81931 140.68759 16634 ft 315 kts
2026-04-27 14:40 34.84093 140.69031 16259 ft 311 kts 359°
2026-04-27 14:40 34.86233 140.69277 15882 ft 308 kts 360°
2026-04-27 14:41 34.88347 140.69527 15506 ft 305 kts
2026-04-27 14:41 34.90442 140.69780 15131 ft 302 kts
2026-04-27 14:41 34.92520 140.70036 14757 ft 299 kts
2026-04-27 14:41 34.94577 140.70290 14380 ft 297 kts
2026-04-27 14:42 34.96616 140.70544 14005 ft 294 kts
2026-04-27 14:42 34.98638 140.70796 13630 ft 292 kts
2026-04-27 14:42 35.00646 140.71046 13255 ft 290 kts
2026-04-27 14:42 35.02638 140.71295 12881 ft 287 kts
2026-04-27 14:43 35.04620 140.71542 12505 ft 285 kts
2026-04-27 14:43 35.06582 140.71786 12130 ft 283 kts
2026-04-27 14:43 35.08532 140.72065 11756 ft 283 kts
2026-04-27 14:43 35.10466 140.72457 11381 ft 282 kts
2026-04-27 14:44 35.12385 140.72908 11006 ft 280 kts
2026-04-27 14:44 35.14290 140.73367 10629 ft 279 kts
2026-04-27 14:44 35.16187 140.73817 10255 ft 278 kts
2026-04-27 14:44 35.18074 140.74259 9881 ft 276 kts
2026-04-27 14:45 35.19952 140.74695 9507 ft 275 kts
2026-04-27 14:45 35.21824 140.75127 9133 ft 274 kts
2026-04-27 14:45 35.23689 140.75554 8807 ft 271 kts
2026-04-27 14:45 35.25515 140.75968 8556 ft 267 kts
2026-04-27 14:46 35.27339 140.76383 8306 ft 267 kts
2026-04-27 14:46 35.29159 140.76799 8056 ft 266 kts
2026-04-27 14:46 35.30972 140.77213 7806 ft 265 kts
2026-04-27 14:46 35.32777 140.77626 7556 ft 264 kts
2026-04-27 14:47 35.34573 140.78038 7307 ft 263 kts
2026-04-27 14:47 35.36366 140.78449 7056 ft 262 kts
2026-04-27 14:47 35.38145 140.78857 6807 ft 261 kts
2026-04-27 14:47 35.39926 140.79266 6557 ft 260 kts
2026-04-27 14:48 35.41699 140.79673 6307 ft 259 kts
2026-04-27 14:48 35.45229 140.80484 5807 ft 258 kts
2026-04-27 14:48 35.46981 140.80886 5557 ft 257 kts
2026-04-27 14:49 35.48731 140.81289 5307 ft 256 kts
2026-04-27 14:49 35.50478 140.81690 5057 ft 255 kts
2026-04-27 14:49 35.52214 140.82089 4807 ft 254 kts 10°
2026-04-27 14:49 35.53947 140.82488 4557 ft 253 kts 10°
2026-04-27 14:50 35.55674 140.82886 4307 ft 253 kts 10°
2026-04-27 14:50 35.57394 140.83280 4058 ft 252 kts 10°
2026-04-27 14:50 35.59110 140.83675 3808 ft 251 kts 10°
2026-04-27 14:50 35.60821 140.84069 3558 ft 250 kts 10°
2026-04-27 14:51 35.62526 140.84462 3308 ft 250 kts 10°
2026-04-27 14:51 35.64229 140.84854 3085 ft 249 kts 10°
2026-04-27 14:51 35.65927 140.85246 3027 ft 249 kts 10°
2026-04-27 14:51 35.67049 140.85557 3023 ft 248 kts 15°
2026-04-27 14:52 35.69187 140.86583 3029 ft 249 kts 24°
2026-04-27 14:52 35.70726 140.87546 3029 ft 249 kts 26°
2026-04-27 14:52 35.72365 140.88176 3023 ft 248 kts
2026-04-27 14:52 35.74056 140.87861 3042 ft 248 kts 343°
2026-04-27 14:53 35.75667 140.87102 3020 ft 248 kts 337°
2026-04-27 14:53 35.77246 140.86257 3028 ft 247 kts 335°
2026-04-27 14:53 35.78808 140.85386 3027 ft 248 kts 335°
2026-04-27 14:53 35.80377 140.84512 3028 ft 248 kts 335°
2026-04-27 14:54 35.81943 140.83638 3028 ft 248 kts 335°
2026-04-27 14:54 35.83504 140.82760 3027 ft 248 kts 334°
2026-04-27 14:54 35.85000 140.81719 3030 ft 247 kts 328°
2026-04-27 14:54 35.86446 140.80576 3025 ft 248 kts 327°
2026-04-27 14:55 35.87881 140.79405 3016 ft 248 kts 326°
2026-04-27 14:55 35.89314 140.78237 3016 ft 247 kts 326°
2026-04-27 14:55 35.90746 140.77069 3016 ft 247 kts 326°
2026-04-27 14:55 35.92179 140.75899 3016 ft 247 kts 326°
2026-04-27 14:56 35.93610 140.74731 3017 ft 247 kts 326°
2026-04-27 14:56 35.95043 140.73560 3017 ft 247 kts 326°
2026-04-27 14:56 35.96476 140.72389 3017 ft 247 kts 326°
2026-04-27 14:56 35.97910 140.71216 3017 ft 247 kts 326°
2026-04-27 14:57 35.99340 140.70046 3017 ft 247 kts 326°
2026-04-27 14:57 36.00772 140.68875 3018 ft 247 kts 326°
2026-04-27 14:57 36.02207 140.67699 3018 ft 247 kts 326°
2026-04-27 14:57 36.03635 140.66530 3019 ft 247 kts 326°
2026-04-27 14:58 36.05068 140.65352 3005 ft 248 kts 326°
2026-04-27 14:58 36.06498 140.64180 3003 ft 247 kts 326°
2026-04-27 14:58 36.07930 140.63004 3001 ft 247 kts 326°
2026-04-27 14:58 36.09346 140.61844 3017 ft 242 kts 326°
2026-04-27 14:59 36.10735 140.60701 3004 ft 239 kts 326°
2026-04-27 14:59 36.12110 140.59572 2988 ft 238 kts 326°
2026-04-27 14:59 36.13481 140.58444 2958 ft 236 kts 326°
2026-04-27 14:59 36.14841 140.57326 2983 ft 237 kts 326°
2026-04-27 15:00 36.16216 140.56195 2992 ft 237 kts 326°
2026-04-27 15:00 36.17593 140.55070 2991 ft 237 kts 327°
2026-04-27 15:00 36.19001 140.54012 2988 ft 237 kts 329°
2026-04-27 15:00 36.20417 140.52975 2985 ft 237 kts 329°
2026-04-27 15:01 36.21820 140.51903 2981 ft 237 kts 324°
2026-04-27 15:01 36.22864 140.50357 2977 ft 237 kts 297°
2026-04-27 15:01 36.23139 140.48372 2985 ft 238 kts 267°
2026-04-27 15:01 36.22590 140.46463 2998 ft 239 kts 241°
2026-04-27 15:02 36.21613 140.44796 2994 ft 239 kts 233°
2026-04-27 15:02 36.20563 140.43207 2990 ft 239 kts 230°
2026-04-27 15:02 36.19485 140.41639 2987 ft 239 kts 230°
2026-04-27 15:02 36.18408 140.40076 2982 ft 239 kts 230°
2026-04-27 15:03 36.17331 140.38511 2986 ft 239 kts 230°
2026-04-27 15:03 36.16257 140.36954 2983 ft 237 kts 230°
2026-04-27 15:03 36.15204 140.35425 2979 ft 232 kts 230°
2026-04-27 15:03 36.14164 140.33917 2982 ft 229 kts 230°
2026-04-27 15:04 36.13133 140.32425 2985 ft 228 kts 230°
2026-04-27 15:04 36.12103 140.30933 2989 ft 229 kts 230°
2026-04-27 15:04 36.11069 140.29432 2982 ft 229 kts 230°
2026-04-27 15:04 36.10039 140.27941 2987 ft 229 kts 230°
2026-04-27 15:05 36.09006 140.26442 2985 ft 229 kts 230°
2026-04-27 15:05 36.07976 140.24951 2984 ft 229 kts 230°
2026-04-27 15:05 36.06893 140.23511 2985 ft 229 kts 224°
2026-04-27 15:05 36.05699 140.22216 2985 ft 229 kts 221°
2026-04-27 15:06 36.04465 140.20971 2983 ft 229 kts 217°
2026-04-27 15:06 36.03043 140.20173 2978 ft 226 kts 192°
2026-04-27 15:06 36.01512 140.20263 3035 ft 217 kts 170°
2026-04-27 15:06 36.00098 140.20847 3055 ft 213 kts 159°
2026-04-27 15:07 35.98752 140.21559 3021 ft 210 kts 156°
2026-04-27 15:07 35.97450 140.22363 2997 ft 210 kts 153°
2026-04-27 15:07 35.96174 140.23241 2986 ft 211 kts 150°
2026-04-27 15:07 35.94914 140.24154 2989 ft 211 kts 149°
2026-04-27 15:08 35.93658 140.25068 2985 ft 211 kts 149°
2026-04-27 15:08 35.92396 140.25985 2983 ft 211 kts 149°
2026-04-27 15:08 35.91132 140.26903 2986 ft 211 kts 149°
2026-04-27 15:08 35.89867 140.27822 2961 ft 210 kts 149°
2026-04-27 15:09 35.88610 140.28733 2661 ft 210 kts 149°
2026-04-27 15:09 35.87383 140.29624 2368 ft 196 kts 149°
2026-04-27 15:09 35.86272 140.30429 2090 ft 176 kts 149°
2026-04-27 15:09 35.85277 140.31150 1906 ft 159 kts 149°
2026-04-27 15:10 35.84340 140.31829 1707 ft 154 kts 149°
2026-04-27 15:10 35.83418 140.32497 1498 ft 155 kts 149°
2026-04-27 15:10 35.82485 140.33173 1289 ft 156 kts 149°
2026-04-27 15:10 35.81552 140.33848 1082 ft 156 kts 150°
2026-04-27 15:11 35.80618 140.34524 876 ft 155 kts 150°
2026-04-27 15:11 35.79705 140.35186 670 ft 151 kts 150°
2026-04-27 15:11 35.78817 140.35838 484 ft 148 kts 149°
2026-04-27 15:11 35.77932 140.36482 312 ft 148 kts 149°
2026-04-27 15:12 35.77055 140.37125 151 ft 141 kts 149°
2026-04-27 15:12 35.76375 140.37602 149 ft 78 kts 149°